Volver al catálogo

FENGYUN 1C DEB

ActivoPO
NORAD 31807·DEBRIS·🇨🇳 China

Lanzado May 10, 1999 desde Taiyuan Satellite Launch Center

Loading…

Próximos Pases (próximas 24 horas)

TLE

ActualizadoSource: Space-Track

Época: Sep 14, 2026, 04:19 UTC

1 31807U 99025CGV 26257.18000884  .00001465  00000-0  33963-3 0  9998
2 31807  99.1103  56.2275 0103302  55.4426 305.6464 14.53598246693054

Sigue FENGYUN 1C DEB en tiempo real con AllMySat

Download on the App Store